Content
SEND FEEDBACK

Daily
Averages
Monthly
Summary
Switzerland

GENEVA, SWITZERLAND


Home > Europe > Switzerland
Elevation: 1364 feet     Latitude: 46 15N     Longitude: 006 08E

WEATHER
 
SELECT A DAY
Number of Records: 306,285;   Date Range: 7/1/96 - 9/18/14
 
SHARE

PRINT THIS DATA

[ ← Previous Day ]
WEATHER ALMANAC - JULY 21, 2013
[ Next Day → ]
[ °C ]   °F
Weather ElementAverageHighLow
Temperature74.4 °F86 °F (4:20 pm)60.8 °F (6:20 am)
Dewpoint61.1 °F64.4 °F (2:20 pm)55.4 °F (6:50 pm)
Humidity64 %100 % (6:20 am)28 % (7:00 pm)
Barometer30.06 in30.12 in (8:50 am)29.96 in (6:00 pm)
Wind Speed4 mph10.4 mph (4:00 pm)
Weather ElementAverage
Visibility7.9 mi
Wind DirectionENE (73.3 °)

Weather ElementTotal
Precipitation---
Cooling Degree Days8.4 (Base 65)
Growing Degree Days23.4 (Base 50)
Averaged from 66 records on July 21, 2013
WEATHER CONDITIONS BREAKOUT
WIND DIRECTION BREAKOUT
WEATHER BY HOUR - JULY 21, 2013
[ °C ]   °F
Local TimeTemperatureDewpointHumidityBarometerVisibilityWind DirectionWind SpeedGust SpeedPrecipitationEventsConditions
12:20 AM68.0 °F60.8 °F78 %30.06 inVariable1.2 mphClear
12:50 AM66.2 °F60.8 °F83 %30.06 inVariable1.2 mphClear
1:00 AM66.0 °F60.0 °F74 %30.04 inNW (320°)1.2 mph
1:20 AM66.2 °F60.8 °F83 %30.06 inSE (140°)2.3 mphClear
1:50 AM64.4 °F60.8 °F88 %30.06 inVariable1.2 mphClear
2:00 AM64.0 °F60.0 °F82 %30.04 in16.0 miNorth (350°)1.2 mphScattered Clouds
2:20 AM64.4 °F60.8 °F88 %30.06 inWest (280°)3.5 mphClear
2:50 AM64.4 °F60.8 °F88 %30.06 inVariable1.2 mphClear
3:00 AM64.0 °F60.0 °F82 %30.06 inNorth (10°)2.3 mph
3:50 AM64.4 °F60.8 °F88 %30.06 inVariable1.2 mphClear
4:00 AM64.0 °F60.0 °F83 %30.06 inWest (280°)2.3 mph
4:20 AM62.6 °F60.8 °F94 %30.06 inCalmClear
4:50 AM62.6 °F60.8 °F94 %30.06 inVariable2.3 mphClear
5:20 AM62.6 °F60.8 °F94 %30.06 inVariable1.2 mphClear
5:50 AM62.6 °F60.8 °F94 %30.06 inSW (230°)3.5 mphClear
6:00 AM62.0 °F59.0 °F88 %30.06 inWNW (290°)3.5 mph
6:20 AM60.8 °F60.8 °F100 %30.09 in6.2 miCalmPartly Cloudy
6:50 AM60.8 °F60.8 °F100 %30.09 inVariable1.2 mphClear
7:00 AM63.0 °F60.0 °F85 %30.07 inNorth (350°)1.2 mph
7:20 AM66.2 °F62.6 °F88 %30.09 inCalmClear
7:50 AM68.0 °F62.6 °F83 %30.09 inVariable2.3 mphClear
8:00 AM67.0 °F62.0 °F79 %30.07 in17.0 miNorth2.3 mphScattered Clouds
8:20 AM71.6 °F60.8 °F69 %30.09 inVariable1.2 mphClear
8:50 AM71.6 °F62.6 °F73 %30.12 in6.2 miENE (70°)3.5 mphPartly Cloudy
9:00 AM70.0 °F60.0 °F61 %30.08 inENE (70°)4.6 mph
9:20 AM71.6 °F60.8 °F69 %30.12 in6.2 miENE (70°)3.5 mphPartly Cloudy
9:50 AM73.4 °F60.8 °F65 %30.12 in6.2 miEast (90°)3.5 mphPartly Cloudy
10:00 AM72.0 °F61.0 °F59 %30.07 inEast (80°)3.5 mph
10:20 AM75.2 °F62.6 °F65 %30.12 in6.2 miVariable3.5 mphPartly Cloudy
10:50 AM75.2 °F62.6 °F65 %30.12 in6.2 miEast (100°)4.6 mphPartly Cloudy
11:20 AM77.0 °F62.6 °F61 %30.09 in6.2 miESE (110°)4.6 mphPartly Cloudy
11:50 AM78.8 °F60.8 °F54 %30.09 in6.2 miENE (60°)8.1 mphPartly Cloudy
12:00 PM78.0 °F61.0 °F46 %30.04 inNE (50°)6.9 mph
12:20 PM80.6 °F62.6 °F54 %30.09 in6.2 miENE (60°)4.6 mphPartly Cloudy
12:50 PM80.6 °F62.6 °F54 %30.09 in6.2 miEast (100°)5.8 mphPartly Cloudy
1:00 PM81.0 °F64.0 °F48 %30.02 inENE (70°)6.9 mph
1:20 PM82.4 °F62.6 °F51 %30.09 in6.2 miVariable5.8 mphPartly Cloudy
1:50 PM82.4 °F62.6 °F51 %30.09 in6.2 miNE (50°)6.9 mphPartly Cloudy
2:00 PM81.0 °F62.0 °F42 %30.01 in22.0 miENE (70°)5.8 mphScattered Clouds
2:20 PM82.4 °F64.4 °F54 %30.09 in6.2 miENE (70°)5.8 mphThunderstormPartly Cloudy
2:50 PM82.4 °F64.4 °F54 %30.06 in6.2 miNE (50°)6.9 mphPartly Cloudy
3:00 PM82.0 °F60.0 °F37 %30.01 inNE (50°)9.2 mph
3:20 PM84.2 °F62.6 °F48 %30.06 in6.2 miNE (50°)8.1 mphPartly Cloudy
3:50 PM84.2 °F57.2 °F40 %30.06 in6.2 miNE (50°)9.2 mphPartly Cloudy
4:00 PM84.0 °F61.0 °F35 %30.00 inNE (50°)10.4 mph
4:20 PM86.0 °F60.8 °F43 %30.06 in6.2 miNE (50°)9.2 mphPartly Cloudy
4:50 PM86.0 °F60.8 °F43 %30.06 in6.2 miNE (50°)8.1 mphPartly Cloudy
5:20 PM86.0 °F59.0 °F40 %30.06 in6.2 miNE (50°)6.9 mphPartly Cloudy
5:50 PM86.0 °F60.8 °F43 %30.04 in6.2 miNE (40°)6.9 mphPartly Cloudy
6:00 PM85.0 °F61.0 °F34 %29.96 inNE (50°)5.8 mph
6:20 PM86.0 °F59.0 °F40 %30.04 in6.2 miENE (70°)6.9 mphPartly Cloudy
6:50 PM86.0 °F55.4 °F35 %30.04 in6.2 miNE (40°)5.8 mphPartly Cloudy
7:00 PM85.0 °F57.0 °F28 %29.97 inNNE (30°)3.5 mph
7:20 PM86.0 °F57.2 °F37 %30.04 in6.2 miVariable2.3 mphThunderstormThunderstorm
7:50 PM86.0 °F59.0 °F40 %30.06 in6.2 miNNE (20°)3.5 mphScattered Clouds
8:00 PM83.0 °F61.0 °F37 %29.99 in19.0 miNorth (10°)6.9 mphThunderstormLight Thunderstorm
8:20 PM82.4 °F57.2 °F42 %30.06 inNorth (10°)4.6 mphClear
8:50 PM80.6 °F59.0 °F48 %30.06 inNorth (360°)3.5 mphClear
9:00 PM79.0 °F58.0 °F39 %30.00 inNE (50°)3.5 mph
9:20 PM77.0 °F64.4 °F65 %30.06 in6.2 miEast (80°)4.6 mphPartly Cloudy
9:50 PM75.2 °F64.4 °F69 %30.06 inVariable3.5 mphClear
10:00 PM74.0 °F63.0 °F61 %30.02 inNorth2.3 mph
10:20 PM73.4 °F64.4 °F73 %30.06 inVariable2.3 mphClear
10:50 PM71.6 °F64.4 °F78 %30.06 inVariable1.2 mphClear
11:20 PM71.6 °F64.4 °F78 %30.06 inVariable1.2 mphClear
11:50 PM71.6 °F64.4 °F78 %30.09 inNW (310°)3.5 mphClear
Hourly data recorded from LSGG, located miles away from Geneva, Switzerland







STORIES FROM OUR PARTNERS